Vorticity
10 8 8 9 8 8 7 5 5 6 6 7 7 6 5 5 8 10 10 10 8 7 6 6 6 5 7 7 6 6 6 7 8 8 9 9 8 8 8 7 7 7
8 8 9 11 10 8 8 8 8 7 5 6 5 5 7 7 8 9 9 10 8 7 6 6 6 6 5 6 5 5 6 6 6 6 6 7 8 7 7 6 6 7
6 6 6 8 8 6 7 7 7 6 5 5 5 7 9 8 9 9 8 8 8 7 7 6 6 6 4 5 5 5 7 6 5 6 6 6 8 7 7 7 6 6
5 4 2 4 5 4 4 4 4 5 4 5 6 7 9 8 8 8 7 7 7 7 6 6 6 5 5 5 4 5 6 6 6 7 7 6 7 7 7 8 7 8
6 5 3 3 5 4 4 4 4 4 4 6 7 7 8 8 7 7 5 5 6 6 5 6 6 5 5 5 5 6 5 5 6 6 6 6 6 7 7 7 9 11
5 5 4 4 5 5 5 6 6 6 6 6 8 8 9 7 6 6 5 5 5 5 5 6 6 5 5 5 6 6 5 5 7 7 6 6 7 8 7 8 9 10
6 5 5 4 4 4 5 6 7 8 7 6 7 8 8 7 7 6 5 4 4 4 4 4 5 6 6 6 6 6 7 6 7 7 7 7 7 7 7 7 7 7
8 7 6 5 4 4 5 4 6 8 7 7 7 7 7 7 7 6 5 5 5 4 4 4 5 5 6 7 7 7 7 8 8 7 7 6 5 4 4 4 3 4
9 9 7 7 6 6 6 4 5 6 6 8 7 7 8 7 6 5 4 5 5 4 4 4 5 5 6 7 7 7 6 6 8 8 8 9 8 8 7 6 5 5
8 8 7 7 7 7 7 6 5 4 5 8 7 5 6 6 6 5 4 4 5 4 5 5 5 6 7 8 8 9 8 6 7 8 9 10 8 8 8 8 8 7
5 7 7 7 7 6 7 7 8 7 6 8 6 5 6 6 5 5 5 5 5 5 5 5 5 6 6 7 8 9 9 7 7 7 7 8 8 7 8 8 8 8
3 4 5 6 6 6 6 7 8 9 9 9 7 5 7 6 6 6 6 6 5 6 6 4 5 6 5 6 7 8 9 8 8 7 7 8 9 8 8 9 9 9
4 4 3 4 5 5 6 7 7 8 9 11 10 8 9 8 7 7 7 6 5 4 5 5 4 4 4 5 5 5 7 7 8 9 9 9 7 6 6 7 8 8
5 5 4 4 4 4 4 4 5 6 6 8 9 9 10 9 8 8 7 6 6 6 7 7 6 7 7 5 4 4 4 5 6 7 9 9 7 7 8 7 7 7
8 8 6 6 5 4 5 4 3 5 5 6 7 6 8 9 8 9 8 7 7 8 9 7 5 7 7 5 4 3 4 5 5 6 7 7 7 7 9 8 7 8
10 10 8 8 8 6 6 5 4 4 4 5 6 5 7 8 8 9 8 7 7 8 9 9 6 4 4 5 4 4 4 4 5 6 5 4 5 6 8 8 8 8
12 12 10 9 9 9 8 8 7 7 6 6 7 6 7 8 8 9 8 7 8 7 6 7 6 5 5 4 2 2 3 3 3 4 4 4 5 5 5 5 4 5
8 10 10 9 9 9 9 9 8 7 7 7 7 7 7 7 7 7 8 8 9 9 9 6 5 5 5 3 2 3 5 5 5 5 5 7 7 5 3 3 2 2
5 7 8 9 9 9 8 8 7 7 7 7 7 6 5 6 7 7 7 8 9 9 10 8 6 6 6 6 6 6 6 6 6 7 7 7 7 7 6 4 3 3
2 4 6 6 6 6 7 7 6 6 6 6 7 7 6 5 6 6 6 7 8 8 8 8 8 6 6 7 6 6 7 7 7 7 8 7 8 8 8 6 6 5
6 5 7 7 7 8 8 8 7 6 7 6 5 6 8 8 7 7 6 6 7 7 7 7 7 6 6 6 6 6 6 6 6 7 8 8 8 7 7 7 7 7
6 -1 1 5 8 8 6 7 9 7 7 7 8 9 10 10 10 9 8 8 7 6 7 8 8 9 8 8 7 8 8 8 9 9 8 9 9 8 8 8 7 7
-4 -2 12 17 14 9 2 2 6 7 6 5 7 10 11 7 6 5 7 10 9 7 7 7 7 7 7 6 6 6 7 8 8 7 8 8 9 9 9 9 9 8
-7 7 20 16 10 8 2 -1 1 3 5 5 4 7 10 8 4 1 2 5 7 7 8 7 6 6 7 7 5 3 4 4 3 3 5 6 7 8 8 8 5 2
2 9 14 9 6 5 0 2 8 6 3 2 2 4 6 7 5 2 1 3 4 5 7 7 6 5 4 5 6 4 3 2 2 4 6 8 8 8 8 10 10 9
17 11 14 18 20 19 10 2 5 10 8 4 3 4 5 6 5 2 3 5 6 5 5 8 9 8 7 6 5 3 2 3 6 8 9 10 11 13 15 17 18 18
Height
5951 5952 5953 5954 5954 5955 5956 5957 5957 5958 5959 5959 5960 5960 5960 5960 5961 5961 5961 5961 5961 5962 5962 5963 5963 5963 5963 5964 5964 5964 5964 5964 5964 5965 5965 5965 5965 5965 5964 5964 5964 5964
5950 5951 5952 5953 5954 5954 5955 5956 5957 5957 5958 5958 5959 5959 5960 5960 5960 5961 5961 5961 5962 5962 5962 5963 5963 5963 5964 5964 5964 5964 5964 5965 5965 5965 5965 5965 5965 5965 5965 5965 5965 5964
5949 5950 5951 5952 5953 5954 5955 5955 5956 5957 5957 5958 5958 5959 5959 5960 5960 5961 5961 5961 5962 5962 5962 5963 5963 5963 5964 5964 5964 5965 5965 5965 5965 5965 5965 5965 5965 5965 5965 5965 5965 5965
5949 5949 5950 5951 5952 5953 5954 5955 5955 5956 5957 5957 5958 5958 5958 5959 5960 5960 5961 5961 5962 5962 5962 5963 5963 5963 5963 5964 5964 5964 5965 5965 5965 5965 5965 5965 5965 5965 5965 5965 5965 5964
5948 5949 5950 5950 5951 5952 5953 5954 5954 5955 5956 5956 5957 5957 5958 5958 5959 5960 5960 5961 5961 5962 5962 5963 5963 5963 5963 5963 5964 5964 5964 5964 5965 5965 5965 5965 5965 5965 5965 5965 5964 5964
5947 5948 5949 5949 5950 5951 5952 5953 5954 5954 5955 5956 5956 5957 5958 5958 5959 5959 5960 5960 5961 5961 5962 5962 5962 5962 5963 5963 5963 5963 5963 5964 5964 5964 5965 5965 5965 5965 5965 5964 5964 5964
5945 5946 5947 5948 5949 5950 5951 5952 5953 5954 5954 5955 5956 5957 5957 5958 5958 5959 5959 5960 5960 5961 5961 5961 5962 5962 5962 5962 5962 5963 5963 5963 5964 5964 5964 5964 5964 5964 5964 5964 5963 5963
5944 5945 5946 5947 5948 5949 5950 5951 5952 5953 5954 5955 5955 5956 5957 5957 5958 5958 5959 5959 5960 5960 5960 5960 5961 5961 5961 5962 5962 5962 5962 5963 5963 5963 5964 5964 5964 5964 5963 5963 5963 5963
5943 5944 5945 5946 5947 5948 5949 5950 5951 5952 5953 5954 5954 5955 5956 5956 5957 5958 5958 5959 5959 5960 5960 5960 5960 5960 5961 5961 5961 5961 5962 5962 5962 5963 5963 5963 5963 5963 5963 5963 5963 5962
5942 5943 5944 5945 5946 5947 5948 5949 5950 5950 5951 5952 5953 5954 5955 5956 5956 5957 5957 5958 5959 5959 5959 5959 5960 5960 5960 5960 5960 5961 5961 5961 5961 5962 5962 5962 5962 5962 5962 5962 5962 5962
5941 5942 5943 5943 5944 5945 5946 5947 5948 5949 5950 5951 5952 5953 5954 5955 5955 5956 5957 5957 5958 5958 5958 5959 5959 5959 5959 5959 5960 5960 5960 5960 5960 5960 5960 5961 5961 5961 5961 5961 5961 5961
5940 5941 5942 5942 5943 5944 5945 5946 5947 5948 5949 5950 5951 5952 5952 5953 5954 5954 5955 5956 5956 5957 5957 5958 5958 5958 5959 5959 5958 5959 5959 5959 5959 5959 5959 5959 5959 5959 5959 5959 5959 5959
5938 5939 5940 5941 5942 5943 5944 5945 5946 5947 5948 5949 5949 5950 5951 5951 5952 5952 5953 5954 5954 5955 5956 5956 5957 5957 5957 5957 5957 5957 5957 5957 5957 5957 5957 5957 5957 5957 5957 5958 5958 5958
5936 5937 5938 5939 5941 5942 5943 5943 5944 5945 5946 5947 5948 5948 5949 5949 5950 5950 5951 5952 5952 5953 5954 5955 5956 5956 5956 5956 5956 5956 5955 5955 5955 5955 5955 5955 5955 5955 5956 5956 5956 5956
5933 5934 5936 5937 5939 5940 5941 5942 5943 5944 5945 5946 5946 5947 5947 5948 5949 5949 5950 5950 5951 5951 5952 5953 5954 5954 5954 5954 5954 5954 5954 5953 5953 5953 5953 5953 5953 5954 5954 5954 5954 5955
5931 5932 5933 5934 5936 5937 5938 5940 5941 5942 5943 5944 5945 5945 5947 5947 5948 5948 5949 5949 5949 5950 5950 5951 5951 5951 5951 5951 5952 5952 5952 5951 5951 5951 5951 5951 5951 5952 5952 5952 5952 5952
5929 5930 5931 5931 5932 5934 5935 5937 5939 5940 5941 5942 5943 5944 5945 5946 5946 5946 5947 5947 5947 5948 5948 5948 5948 5948 5948 5949 5949 5949 5949 5949 5949 5949 5949 5949 5949 5949 5950 5950 5950 5950
5924 5926 5928 5928 5929 5930 5932 5934 5936 5937 5937 5938 5940 5941 5942 5942 5943 5943 5944 5944 5945 5946 5946 5945 5945 5945 5945 5946 5946 5947 5947 5947 5947 5948 5948 5947 5947 5947 5948 5948 5948 5948
5920 5922 5924 5925 5926 5927 5928 5930 5932 5933 5934 5935 5936 5937 5938 5938 5939 5940 5941 5941 5942 5943 5944 5943 5943 5943 5943 5943 5943 5944 5944 5945 5945 5945 5945 5945 5945 5945 5945 5945 5945 5945
5919 5920 5921 5922 5923 5924 5925 5926 5928 5929 5930 5931 5932 5932 5934 5935 5936 5936 5937 5938 5939 5940 5940 5941 5940 5940 5940 5940 5940 5941 5941 5941 5942 5943 5943 5943 5943 5943 5943 5942 5942 5942
5917 5918 5919 5919 5920 5922 5923 5923 5923 5925 5927 5928 5928 5928 5930 5931 5932 5933 5933 5934 5935 5936 5936 5937 5937 5937 5937 5937 5937 5938 5938 5938 5939 5939 5940 5940 5940 5940 5940 5939 5939 5939
5913 5914 5915 5916 5917 5918 5919 5920 5920 5922 5924 5924 5924 5925 5926 5927 5928 5929 5930 5930 5931 5932 5932 5933 5934 5934 5934 5934 5934 5934 5935 5935 5935 5936 5937 5938 5938 5937 5936 5936 5936 5936
5908 5909 5911 5912 5912 5913 5915 5916 5917 5918 5919 5920 5921 5921 5922 5922 5923 5924 5926 5926 5927 5928 5929 5929 5930 5931 5931 5931 5931 5931 5931 5931 5932 5932 5933 5934 5934 5934 5933 5932 5932 5932
5905 5906 5907 5908 5908 5909 5911 5912 5913 5913 5913 5914 5916 5917 5918 5919 5919 5920 5921 5922 5923 5924 5925 5925 5926 5927 5927 5928 5928 5928 5928 5928 5928 5928 5928 5929 5929 5930 5929 5929 5929 5928
5902 5904 5905 5905 5906 5907 5908 5907 5908 5908 5908 5908 5910 5911 5913 5914 5916 5917 5917 5918 5919 5919 5920 5921 5921 5922 5923 5924 5924 5925 5925 5925 5924 5924 5924 5924 5924 5925 5925 5925 5925 5924
5898 5900 5901 5902 5902 5903 5904 5904 5904 5903 5903 5905 5906 5907 5908 5909 5911 5912 5912 5913 5914 5915 5915 5916 5917 5918 5919 5919 5920 5921 5921 5921 5920 5920 5919 5919 5919 5920 5920 5920 5920 5920